Year,Month,Day,Hour,Minute,Value (Times are PST for temperature in C)
2010,09,28,00,00,16.20
2010,09,28,00,01,16.20
2010,09,28,00,02,16.20
2010,09,28,00,03,16.20
2010,09,28,00,04,16.20
2010,09,28,00,05,16.20
2010,09,28,00,06,16.30
2010,09,28,00,07,16.30
2010,09,28,00,08,16.30
2010,09,28,00,09,16.30
2010,09,28,00,10,16.30
2010,09,28,00,11,16.30
2010,09,28,00,12,16.30
2010,09,28,00,13,16.30
2010,09,28,00,14,16.30
2010,09,28,00,15,16.20
2010,09,28,00,16,16.20
2010,09,28,00,17,16.10
2010,09,28,00,18,16.10
2010,09,28,00,19,16.00
2010,09,28,00,20,15.90
2010,09,28,00,21,15.90
2010,09,28,00,22,15.80
2010,09,28,00,23,15.80
2010,09,28,00,24,15.80
2010,09,28,00,25,15.70
2010,09,28,00,26,15.70
2010,09,28,00,27,15.80
2010,09,28,00,28,15.80
2010,09,28,00,29,15.80
2010,09,28,00,30,15.80
2010,09,28,00,31,15.80
2010,09,28,00,32,15.80
2010,09,28,00,33,15.80
2010,09,28,00,34,15.80
2010,09,28,00,35,15.80
2010,09,28,00,36,15.80
2010,09,28,00,37,15.80
2010,09,28,00,38,15.80
2010,09,28,00,39,15.80
2010,09,28,00,40,15.80
2010,09,28,00,41,15.80
2010,09,28,00,42,15.80
2010,09,28,00,43,15.80
2010,09,28,00,44,15.80
2010,09,28,00,45,15.80
2010,09,28,00,46,15.80
2010,09,28,00,47,15.80
2010,09,28,00,48,15.80
2010,09,28,00,49,15.80
2010,09,28,00,50,15.80
2010,09,28,00,51,15.80
2010,09,28,00,52,15.80
2010,09,28,00,53,15.80
2010,09,28,00,54,15.80
2010,09,28,00,55,15.80
2010,09,28,00,56,15.80
2010,09,28,00,57,15.80
2010,09,28,00,58,15.80
2010,09,28,00,59,15.80
2010,09,28,01,00,15.80
2010,09,28,01,01,15.80
2010,09,28,01,02,15.80
2010,09,28,01,03,15.80
2010,09,28,01,04,15.80
2010,09,28,01,05,15.80
2010,09,28,01,06,15.80
2010,09,28,01,07,15.80
2010,09,28,01,08,15.80
2010,09,28,01,09,15.80
2010,09,28,01,10,15.80
2010,09,28,01,11,15.80
2010,09,28,01,12,15.70
2010,09,28,01,13,15.70
2010,09,28,01,14,15.70
2010,09,28,01,15,15.70
2010,09,28,01,16,15.60
2010,09,28,01,17,15.60
2010,09,28,01,18,15.60
2010,09,28,01,19,15.60
2010,09,28,01,20,15.70
2010,09,28,01,21,15.70
2010,09,28,01,22,15.70
2010,09,28,01,23,15.70
2010,09,28,01,24,15.70
2010,09,28,01,25,15.70
2010,09,28,01,26,15.70
2010,09,28,01,27,15.70
2010,09,28,01,28,15.70
2010,09,28,01,29,15.70
2010,09,28,01,30,15.70
2010,09,28,01,31,15.70
2010,09,28,01,32,15.70
2010,09,28,01,33,15.70
2010,09,28,01,34,15.70
2010,09,28,01,35,15.70
2010,09,28,01,36,15.70
2010,09,28,01,37,15.70
2010,09,28,01,38,15.70
2010,09,28,01,39,15.70
2010,09,28,01,40,15.70
2010,09,28,01,41,15.60
2010,09,28,01,42,15.60
2010,09,28,01,43,15.60
2010,09,28,01,44,15.60
2010,09,28,01,45,15.60
2010,09,28,01,46,15.60
2010,09,28,01,47,15.60
2010,09,28,01,48,15.60
2010,09,28,01,49,15.60
2010,09,28,01,50,15.60
2010,09,28,01,51,15.50
2010,09,28,01,52,15.50
2010,09,28,01,53,15.50
2010,09,28,01,54,15.50
2010,09,28,01,55,15.40
2010,09,28,01,56,15.40
2010,09,28,01,57,15.40
2010,09,28,01,58,15.40
2010,09,28,01,59,15.40
2010,09,28,02,00,15.50
2010,09,28,02,01,15.60
2010,09,28,02,02,15.60
2010,09,28,02,03,15.80
2010,09,28,02,04,15.80
2010,09,28,02,05,15.90
2010,09,28,02,06,15.90
2010,09,28,02,07,15.90
2010,09,28,02,08,16.10
2010,09,28,02,09,16.10
2010,09,28,02,10,16.10
2010,09,28,02,11,16.10
2010,09,28,02,12,16.20
2010,09,28,02,13,16.30
2010,09,28,02,14,16.30
2010,09,28,02,15,16.30
2010,09,28,02,16,16.40
2010,09,28,02,17,16.40
2010,09,28,02,18,16.40
2010,09,28,02,19,16.40
2010,09,28,02,20,16.40
2010,09,28,02,21,16.40
2010,09,28,02,22,16.40
2010,09,28,02,23,16.50
2010,09,28,02,24,16.60
2010,09,28,02,25,16.60
2010,09,28,02,26,16.60
2010,09,28,02,27,16.60
2010,09,28,02,28,16.60
2010,09,28,02,29,16.60
2010,09,28,02,30,16.70
2010,09,28,02,31,16.70
2010,09,28,02,32,16.70
2010,09,28,02,33,16.70
2010,09,28,02,34,16.70
2010,09,28,02,35,16.70
2010,09,28,02,36,16.70
2010,09,28,02,37,16.70
2010,09,28,02,38,16.70
2010,09,28,02,39,16.70
2010,09,28,02,40,16.70
2010,09,28,02,41,16.70
2010,09,28,02,42,16.70
2010,09,28,02,43,16.70
2010,09,28,02,44,16.70
2010,09,28,02,45,16.70
2010,09,28,02,46,16.70
2010,09,28,02,47,16.70
2010,09,28,02,48,16.70
2010,09,28,02,49,16.70
2010,09,28,02,50,16.70
2010,09,28,02,51,16.70
2010,09,28,02,52,16.70
2010,09,28,02,53,16.70
2010,09,28,02,54,16.70
2010,09,28,02,55,16.70
2010,09,28,02,56,16.70
2010,09,28,02,57,16.70
2010,09,28,02,58,16.70
2010,09,28,02,59,16.70
2010,09,28,03,00,16.70
2010,09,28,03,01,16.70
2010,09,28,03,02,16.60
2010,09,28,03,03,16.60
2010,09,28,03,04,16.60
2010,09,28,03,05,16.60
2010,09,28,03,06,16.60
2010,09,28,03,07,16.60
2010,09,28,03,08,16.60
2010,09,28,03,09,16.50
2010,09,28,03,10,16.40
2010,09,28,03,11,16.40
2010,09,28,03,12,16.40
2010,09,28,03,13,16.40
2010,09,28,03,14,16.40
2010,09,28,03,15,16.40
2010,09,28,03,16,16.40
2010,09,28,03,17,16.40
2010,09,28,03,18,16.40
2010,09,28,03,19,16.40
2010,09,28,03,20,16.40
2010,09,28,03,21,16.40
2010,09,28,03,22,16.40
2010,09,28,03,23,16.40
2010,09,28,03,24,16.40
2010,09,28,03,25,16.40
2010,09,28,03,26,16.40
2010,09,28,03,27,16.40
2010,09,28,03,28,16.40
2010,09,28,03,29,16.40
2010,09,28,03,30,16.40
2010,09,28,03,31,16.40
2010,09,28,03,32,16.40
2010,09,28,03,33,16.40
2010,09,28,03,34,16.50
2010,09,28,03,35,16.60
2010,09,28,03,36,16.60
2010,09,28,03,37,16.60
2010,09,28,03,38,16.60
2010,09,28,03,39,16.60
2010,09,28,03,40,16.60
2010,09,28,03,41,16.60
2010,09,28,03,42,16.60
2010,09,28,03,43,16.60
2010,09,28,03,44,16.50
2010,09,28,03,45,16.50
2010,09,28,03,46,16.50
2010,09,28,03,47,16.60
2010,09,28,03,48,16.60
2010,09,28,03,49,16.60
2010,09,28,03,50,16.60
2010,09,28,03,51,16.60
2010,09,28,03,52,16.60
2010,09,28,03,53,16.60
2010,09,28,03,54,16.60
2010,09,28,03,55,16.60
2010,09,28,03,56,16.60
2010,09,28,03,57,16.60
2010,09,28,03,58,16.60
2010,09,28,03,59,16.60
2010,09,28,04,00,16.60
2010,09,28,04,01,16.60
2010,09,28,04,02,16.60
2010,09,28,04,03,16.60
2010,09,28,04,04,16.50
2010,09,28,04,05,16.40
2010,09,28,04,06,16.40
2010,09,28,04,07,16.40
2010,09,28,04,08,16.40
2010,09,28,04,09,16.40
2010,09,28,04,10,16.40
2010,09,28,04,11,16.40
2010,09,28,04,12,16.40
2010,09,28,04,13,16.40
2010,09,28,04,14,16.40
2010,09,28,04,15,16.40
2010,09,28,04,16,16.40
2010,09,28,04,17,16.40
2010,09,28,04,18,16.40
2010,09,28,04,19,16.40
2010,09,28,04,20,16.40
2010,09,28,04,21,16.40
2010,09,28,04,22,16.40
2010,09,28,04,23,16.40
2010,09,28,04,24,16.40
2010,09,28,04,25,16.40
2010,09,28,04,26,16.40
2010,09,28,04,27,16.40
2010,09,28,04,28,16.40
2010,09,28,04,29,16.40
2010,09,28,04,30,16.30
2010,09,28,04,31,16.30
2010,09,28,04,32,16.30
2010,09,28,04,33,16.30
2010,09,28,04,34,16.30
2010,09,28,04,35,16.30
2010,09,28,04,36,16.30
2010,09,28,04,37,16.30
2010,09,28,04,38,16.30
2010,09,28,04,39,16.30
2010,09,28,04,40,16.30
2010,09,28,04,41,16.30
2010,09,28,04,42,16.30
2010,09,28,04,43,16.30
2010,09,28,04,44,16.30
2010,09,28,04,45,16.30
2010,09,28,04,46,16.30
2010,09,28,04,47,16.30
2010,09,28,04,48,16.30
2010,09,28,04,49,16.30
2010,09,28,04,50,16.20
2010,09,28,04,51,16.20
2010,09,28,04,52,16.10
2010,09,28,04,53,16.10
2010,09,28,04,54,16.10
2010,09,28,04,55,16.10
2010,09,28,04,56,16.10
2010,09,28,04,57,16.10
2010,09,28,04,58,16.10
2010,09,28,04,59,16.10
2010,09,28,05,00,16.10
2010,09,28,05,01,16.10
2010,09,28,05,02,16.20
2010,09,28,05,03,16.20
2010,09,28,05,04,16.20
2010,09,28,05,05,16.20
2010,09,28,05,06,16.20
2010,09,28,05,07,16.20
2010,09,28,05,08,16.20
2010,09,28,05,09,16.30
2010,09,28,05,10,16.30
2010,09,28,05,11,16.30
2010,09,28,05,12,16.30
2010,09,28,05,13,16.30
2010,09,28,05,14,16.30
2010,09,28,05,15,16.30
2010,09,28,05,16,16.40
2010,09,28,05,17,16.40
2010,09,28,05,18,16.40
2010,09,28,05,19,16.40
2010,09,28,05,20,16.30
2010,09,28,05,21,16.30
2010,09,28,05,22,16.30
2010,09,28,05,23,16.30
2010,09,28,05,24,16.30
2010,09,28,05,25,16.30
2010,09,28,05,26,16.30
2010,09,28,05,27,16.30
2010,09,28,05,28,16.30
2010,09,28,05,29,16.30
2010,09,28,05,30,16.30
2010,09,28,05,31,16.30
2010,09,28,05,32,16.20
2010,09,28,05,33,16.20
2010,09,28,05,34,16.20
2010,09,28,05,35,16.20
2010,09,28,05,36,16.20
2010,09,28,05,37,16.20
2010,09,28,05,38,16.20
2010,09,28,05,39,16.20
2010,09,28,05,40,16.20
2010,09,28,05,41,16.20
2010,09,28,05,42,16.20
2010,09,28,05,43,16.20
2010,09,28,05,44,16.30
2010,09,28,05,45,16.30
2010,09,28,05,46,16.30
2010,09,28,05,47,16.30
2010,09,28,05,48,16.30
2010,09,28,05,49,16.30
2010,09,28,05,50,16.30
2010,09,28,05,51,16.30
2010,09,28,05,52,16.30
2010,09,28,05,53,16.30
2010,09,28,05,54,16.20
2010,09,28,05,55,16.20
2010,09,28,05,56,16.10
2010,09,28,05,57,16.10
2010,09,28,05,58,16.10
2010,09,28,05,59,16.10
2010,09,28,06,00,16.10
2010,09,28,06,01,16.10
2010,09,28,06,02,16.10
2010,09,28,06,03,16.10
2010,09,28,06,04,16.10
2010,09,28,06,05,16.10
2010,09,28,06,06,16.10
2010,09,28,06,07,16.10
2010,09,28,06,08,16.10
2010,09,28,06,09,16.10
2010,09,28,06,10,16.10
2010,09,28,06,11,16.10
2010,09,28,06,12,16.10
2010,09,28,06,13,16.10
2010,09,28,06,14,16.10
2010,09,28,06,15,16.10
2010,09,28,06,16,16.10
2010,09,28,06,17,16.10
2010,09,28,06,18,16.10
2010,09,28,06,19,16.10
2010,09,28,06,20,16.10
2010,09,28,06,21,16.10
2010,09,28,06,22,16.10
2010,09,28,06,23,16.10
2010,09,28,06,24,16.10
2010,09,28,06,25,16.20
2010,09,28,06,26,16.20
2010,09,28,06,27,16.20
2010,09,28,06,28,16.20
2010,09,28,06,29,16.20
2010,09,28,06,30,16.10
2010,09,28,06,31,16.10
2010,09,28,06,32,16.10
2010,09,28,06,33,16.10
2010,09,28,06,34,16.10
2010,09,28,06,35,16.10
2010,09,28,06,36,16.10
2010,09,28,06,37,16.10
2010,09,28,06,38,16.10
2010,09,28,06,39,16.10
2010,09,28,06,40,16.10
2010,09,28,06,41,16.10
2010,09,28,06,42,16.10
2010,09,28,06,43,16.10
2010,09,28,06,44,15.90
2010,09,28,06,45,15.90
2010,09,28,06,46,15.90
2010,09,28,06,47,15.90
2010,09,28,06,48,15.90
2010,09,28,06,49,15.90
2010,09,28,06,50,15.90
2010,09,28,06,51,15.90
2010,09,28,06,52,15.90
2010,09,28,06,53,15.90
2010,09,28,06,54,15.90
2010,09,28,06,55,15.90
2010,09,28,06,56,15.90
2010,09,28,06,57,15.90
2010,09,28,06,58,15.90
2010,09,28,06,59,15.90
2010,09,28,07,00,15.80
2010,09,28,07,01,15.80
2010,09,28,07,02,15.80
2010,09,28,07,03,15.80
2010,09,28,07,04,15.80
2010,09,28,07,05,15.80
2010,09,28,07,06,15.80
2010,09,28,07,07,15.80
2010,09,28,07,08,15.80
2010,09,28,07,09,15.80
2010,09,28,07,10,15.80
2010,09,28,07,11,15.80
2010,09,28,07,12,15.80
2010,09,28,07,13,15.80
2010,09,28,07,14,15.80
2010,09,28,07,15,15.80
2010,09,28,07,16,15.80
2010,09,28,07,17,15.80
2010,09,28,07,18,15.80
2010,09,28,07,19,15.80
2010,09,28,07,20,15.80
2010,09,28,07,21,15.80
2010,09,28,07,22,15.80
2010,09,28,07,23,15.80
2010,09,28,07,24,15.80
2010,09,28,07,25,15.70
2010,09,28,07,26,15.80
2010,09,28,07,27,15.80
2010,09,28,07,28,15.80
2010,09,28,07,29,15.80
2010,09,28,07,30,15.80
2010,09,28,07,31,15.90
2010,09,28,07,32,15.90
2010,09,28,07,33,15.90
2010,09,28,07,34,15.90
2010,09,28,07,35,16.10
2010,09,28,07,36,16.10
2010,09,28,07,37,16.10
2010,09,28,07,38,16.10
2010,09,28,07,39,16.10
2010,09,28,07,40,16.10
2010,09,28,07,41,16.10
2010,09,28,07,42,16.20
2010,09,28,07,43,16.20
2010,09,28,07,44,16.20
2010,09,28,07,45,16.20
2010,09,28,07,46,16.20
2010,09,28,07,47,16.30
2010,09,28,07,48,16.30
2010,09,28,07,49,16.30
2010,09,28,07,50,16.30
2010,09,28,07,51,16.30
2010,09,28,07,52,16.40
2010,09,28,07,53,16.40
2010,09,28,07,54,16.40
2010,09,28,07,55,16.40
2010,09,28,07,56,16.40
2010,09,28,07,57,16.40
2010,09,28,07,58,16.60
2010,09,28,07,59,16.60
2010,09,28,08,00,16.60
2010,09,28,08,01,16.60
2010,09,28,08,02,16.60
2010,09,28,08,03,16.60
2010,09,28,08,04,16.70
2010,09,28,08,05,16.70
2010,09,28,08,06,16.70
2010,09,28,08,07,16.70
2010,09,28,08,08,16.70
2010,09,28,08,09,16.70
2010,09,28,08,10,16.70
2010,09,28,08,11,16.70
2010,09,28,08,12,16.70
2010,09,28,08,13,16.70
2010,09,28,08,14,16.70
2010,09,28,08,15,16.70
2010,09,28,08,16,16.70
2010,09,28,08,17,16.70
2010,09,28,08,18,16.70
2010,09,28,08,19,16.70
2010,09,28,08,20,16.60
2010,09,28,08,21,16.60
2010,09,28,08,22,16.60
2010,09,28,08,23,16.60
2010,09,28,08,24,16.70
2010,09,28,08,25,16.70
2010,09,28,08,26,16.70
2010,09,28,08,27,16.70
2010,09,28,08,28,16.70
2010,09,28,08,29,16.70
2010,09,28,08,30,16.70
2010,09,28,08,31,16.70
2010,09,28,08,32,16.70
2010,09,28,08,33,16.70
2010,09,28,08,34,16.70
2010,09,28,08,35,16.60
2010,09,28,08,36,16.60
2010,09,28,08,37,16.60
2010,09,28,08,38,16.60
2010,09,28,08,39,16.60
2010,09,28,08,40,16.50
2010,09,28,08,41,16.40
2010,09,28,08,42,16.40
2010,09,28,08,43,16.40
2010,09,28,08,44,16.40
2010,09,28,08,45,16.40
2010,09,28,08,46,16.40
2010,09,28,08,47,16.40
2010,09,28,08,48,16.40
2010,09,28,08,49,16.40
2010,09,28,08,50,16.40
2010,09,28,08,51,16.40
2010,09,28,08,52,16.40
2010,09,28,08,53,16.40
2010,09,28,08,54,16.40
2010,09,28,08,55,16.40
2010,09,28,08,56,16.40
2010,09,28,08,57,16.40
2010,09,28,08,58,16.40
2010,09,28,08,59,16.40
2010,09,28,09,00,16.40
2010,09,28,09,01,16.40
2010,09,28,09,02,16.40
2010,09,28,09,03,16.40
2010,09,28,09,04,16.40
2010,09,28,09,05,16.50
2010,09,28,09,06,16.60
2010,09,28,09,07,16.60
2010,09,28,09,08,16.60
2010,09,28,09,09,16.60
2010,09,28,09,10,16.60
2010,09,28,09,11,16.50
2010,09,28,09,12,16.40
2010,09,28,09,13,16.40
2010,09,28,09,14,16.40
2010,09,28,09,15,16.40
2010,09,28,09,16,16.40
2010,09,28,09,17,16.40
2010,09,28,09,18,16.40
2010,09,28,09,19,16.40
2010,09,28,09,20,16.40
2010,09,28,09,21,16.40
2010,09,28,09,22,16.40
2010,09,28,09,23,16.50
2010,09,28,09,24,16.50
2010,09,28,09,25,16.40
2010,09,28,09,26,16.40
2010,09,28,09,27,16.40
2010,09,28,09,28,16.40
2010,09,28,09,29,16.40
2010,09,28,09,30,16.40
2010,09,28,09,31,16.40
2010,09,28,09,32,16.40
2010,09,28,09,33,16.40
2010,09,28,09,34,16.40
2010,09,28,09,35,16.40
2010,09,28,09,36,16.50
2010,09,28,09,37,16.40
2010,09,28,09,38,16.40
2010,09,28,09,39,16.40
2010,09,28,09,40,16.40
2010,09,28,09,41,16.40
2010,09,28,09,42,16.40
2010,09,28,09,43,16.40
2010,09,28,09,44,16.40
2010,09,28,09,45,16.40
2010,09,28,09,46,16.40
2010,09,28,09,47,16.40
2010,09,28,09,48,16.40
2010,09,28,09,49,16.40
2010,09,28,09,50,16.50
2010,09,28,09,51,16.60
2010,09,28,09,52,16.60
2010,09,28,09,53,16.50
2010,09,28,09,54,16.40
2010,09,28,09,55,16.40
2010,09,28,09,56,16.40
2010,09,28,09,57,16.40
2010,09,28,09,58,16.40
2010,09,28,09,59,16.40
2010,09,28,10,00,16.40
2010,09,28,10,01,16.40
2010,09,28,10,02,16.40
2010,09,28,10,03,16.40
2010,09,28,10,04,16.40
2010,09,28,10,05,16.40
2010,09,28,10,06,16.40
2010,09,28,10,07,16.40
2010,09,28,10,08,16.40
2010,09,28,10,09,16.40
2010,09,28,10,10,16.40
2010,09,28,10,11,16.40
2010,09,28,10,12,16.40
2010,09,28,10,13,16.40
2010,09,28,10,14,16.40
2010,09,28,10,15,16.40
2010,09,28,10,16,16.40
2010,09,28,10,17,16.50
2010,09,28,10,18,16.50
2010,09,28,10,19,16.40
2010,09,28,10,20,16.40
2010,09,28,10,21,16.40
2010,09,28,10,22,16.30
2010,09,28,10,23,16.30
2010,09,28,10,24,16.30
2010,09,28,10,25,16.30
2010,09,28,10,26,16.30
2010,09,28,10,27,16.30
2010,09,28,10,28,16.30
2010,09,28,10,29,16.30
2010,09,28,10,30,16.30
2010,09,28,10,31,16.30
2010,09,28,10,32,16.30
2010,09,28,10,33,16.30
2010,09,28,10,34,16.30
2010,09,28,10,35,16.30
2010,09,28,10,36,16.30
2010,09,28,10,37,16.30
2010,09,28,10,38,16.30
2010,09,28,10,39,16.30
2010,09,28,10,40,16.30
2010,09,28,10,41,16.30
2010,09,28,10,42,16.30
2010,09,28,10,43,16.30
2010,09,28,10,44,16.20
2010,09,28,10,45,16.20
2010,09,28,10,46,16.20
2010,09,28,10,47,16.30
2010,09,28,10,48,16.20
2010,09,28,10,49,16.20
2010,09,28,10,50,16.20
2010,09,28,10,51,16.20
2010,09,28,10,52,16.20
2010,09,28,10,53,16.20
2010,09,28,10,54,16.30
2010,09,28,10,55,16.30
2010,09,28,10,56,16.30
2010,09,28,10,57,16.40
2010,09,28,10,58,16.40
2010,09,28,10,59,16.40
2010,09,28,11,00,16.40
2010,09,28,11,01,16.50
2010,09,28,11,02,16.60
2010,09,28,11,03,16.60
2010,09,28,11,04,16.60
2010,09,28,11,05,16.70
2010,09,28,11,06,16.70
2010,09,28,11,07,16.70
2010,09,28,11,08,16.70
2010,09,28,11,09,16.70
2010,09,28,11,10,16.70
2010,09,28,11,11,16.70
2010,09,28,11,12,16.60
2010,09,28,11,13,16.60
2010,09,28,11,14,16.60
2010,09,28,11,15,16.40
2010,09,28,11,16,16.40
2010,09,28,11,17,16.40
2010,09,28,11,18,16.40
2010,09,28,11,19,16.40
2010,09,28,11,20,16.40
2010,09,28,11,21,16.50
2010,09,28,11,22,16.60
2010,09,28,11,23,16.60
2010,09,28,11,24,16.60
2010,09,28,11,25,16.70
2010,09,28,11,26,16.70
2010,09,28,11,27,16.70
2010,09,28,11,28,16.80
2010,09,28,11,29,16.80
2010,09,28,11,30,16.90
2010,09,28,11,31,16.90
2010,09,28,11,32,17.00
2010,09,28,11,33,17.00
2010,09,28,11,34,17.00
2010,09,28,11,35,17.10
2010,09,28,11,36,17.10
2010,09,28,11,37,17.20
2010,09,28,11,38,17.20
2010,09,28,11,39,17.30
2010,09,28,11,40,17.30
2010,09,28,11,41,17.30
2010,09,28,11,42,17.30
2010,09,28,11,43,17.30
2010,09,28,11,44,17.30
2010,09,28,11,45,17.30
2010,09,28,11,46,17.40
2010,09,28,11,47,17.40
2010,09,28,11,48,17.50
2010,09,28,11,49,17.60
2010,09,28,11,50,17.70
2010,09,28,11,51,17.80
2010,09,28,11,52,17.90
2010,09,28,11,53,18.00
2010,09,28,11,54,18.10
2010,09,28,11,55,18.10
2010,09,28,11,56,18.20
2010,09,28,11,57,18.20
2010,09,28,11,58,18.40
2010,09,28,11,59,18.40
2010,09,28,12,00,18.50
2010,09,28,12,01,18.60
2010,09,28,12,02,18.60
2010,09,28,12,03,18.70
2010,09,28,12,04,18.80
2010,09,28,12,05,18.80
2010,09,28,12,06,18.80
2010,09,28,12,07,18.70
2010,09,28,12,08,18.70
2010,09,28,12,09,18.70
2010,09,28,12,10,18.70
2010,09,28,12,11,18.70
2010,09,28,12,12,18.70
2010,09,28,12,13,18.70
2010,09,28,12,14,18.70
2010,09,28,12,15,18.70
2010,09,28,12,16,18.90
2010,09,28,12,17,18.90
2010,09,28,12,18,18.90
2010,09,28,12,19,18.80
2010,09,28,12,20,18.70
2010,09,28,12,21,18.70
2010,09,28,12,22,18.70
2010,09,28,12,23,18.80
2010,09,28,12,24,18.80
2010,09,28,12,25,18.70
2010,09,28,12,26,18.80
2010,09,28,12,27,18.80
2010,09,28,12,28,18.80
2010,09,28,12,29,18.80
2010,09,28,12,30,18.90
2010,09,28,12,31,18.80
2010,09,28,12,32,18.80
2010,09,28,12,33,18.80
2010,09,28,12,34,18.90
2010,09,28,12,35,19.00
2010,09,28,12,36,19.10
2010,09,28,12,37,19.10
2010,09,28,12,38,19.10
2010,09,28,12,39,19.10
2010,09,28,12,40,19.10
2010,09,28,12,41,19.30
2010,09,28,12,42,19.40
2010,09,28,12,43,19.40
2010,09,28,12,44,19.50
2010,09,28,12,45,19.50
2010,09,28,12,46,19.60
2010,09,28,12,47,19.60
2010,09,28,12,48,19.60
2010,09,28,12,49,19.60
2010,09,28,12,50,19.70
2010,09,28,12,51,19.70
2010,09,28,12,52,19.70
2010,09,28,12,53,19.70
2010,09,28,12,54,19.70
2010,09,28,12,55,19.80
2010,09,28,12,56,19.90
2010,09,28,12,57,19.90
2010,09,28,12,58,19.90
2010,09,28,12,59,20.10
2010,09,28,13,00,20.20
2010,09,28,13,01,20.20
2010,09,28,13,02,20.30
2010,09,28,13,03,20.40
2010,09,28,13,04,20.40
2010,09,28,13,05,20.50
2010,09,28,13,06,20.50
2010,09,28,13,07,20.60
2010,09,28,13,08,20.70
2010,09,28,13,09,20.80
2010,09,28,13,10,20.90
2010,09,28,13,11,20.90
2010,09,28,13,12,20.90
2010,09,28,13,13,20.90
2010,09,28,13,14,20.80
2010,09,28,13,15,20.80
2010,09,28,13,16,20.80
2010,09,28,13,17,20.90
2010,09,28,13,18,20.80
2010,09,28,13,19,20.80
2010,09,28,13,20,20.80
2010,09,28,13,21,20.80
2010,09,28,13,22,20.80
2010,09,28,13,23,20.90
2010,09,28,13,24,20.90
2010,09,28,13,25,21.00
2010,09,28,13,26,20.90
2010,09,28,13,27,21.00
2010,09,28,13,28,21.00
2010,09,28,13,29,21.00
2010,09,28,13,30,21.00
2010,09,28,13,31,21.10
2010,09,28,13,32,21.10
2010,09,28,13,33,21.20
2010,09,28,13,34,21.30
2010,09,28,13,35,21.20
2010,09,28,13,36,21.20
2010,09,28,13,37,21.20
2010,09,28,13,38,21.30
2010,09,28,13,39,21.40
2010,09,28,13,40,21.60
2010,09,28,13,41,21.70
2010,09,28,13,42,21.70
2010,09,28,13,43,21.60
2010,09,28,13,44,21.60
2010,09,28,13,45,21.40
2010,09,28,13,46,21.40
2010,09,28,13,47,21.30
2010,09,28,13,48,21.30
2010,09,28,13,49,21.20
2010,09,28,13,50,21.20
2010,09,28,13,51,21.20
2010,09,28,13,52,21.30
2010,09,28,13,53,21.30
2010,09,28,13,54,21.30
2010,09,28,13,55,21.30
2010,09,28,13,56,21.30
2010,09,28,13,57,21.30
2010,09,28,13,58,21.30
2010,09,28,13,59,21.40
2010,09,28,14,00,21.40
2010,09,28,14,01,21.40
2010,09,28,14,02,21.40
2010,09,28,14,03,21.40
2010,09,28,14,04,21.40
2010,09,28,14,05,21.40
2010,09,28,14,06,21.30
2010,09,28,14,07,21.30
2010,09,28,14,08,21.30
2010,09,28,14,09,21.20
2010,09,28,14,10,21.20
2010,09,28,14,11,21.20
2010,09,28,14,12,21.10
2010,09,28,14,13,21.10
2010,09,28,14,14,21.10
2010,09,28,14,15,21.10
2010,09,28,14,16,21.00
2010,09,28,14,17,21.00
2010,09,28,14,18,20.80
2010,09,28,14,19,20.70
2010,09,28,14,20,20.50
2010,09,28,14,21,20.40
2010,09,28,14,22,20.30
2010,09,28,14,23,20.20
2010,09,28,14,24,20.20
2010,09,28,14,25,20.20
2010,09,28,14,26,20.20
2010,09,28,14,27,20.20
2010,09,28,14,28,20.20
2010,09,28,14,29,20.10
2010,09,28,14,30,20.00
2010,09,28,14,31,19.90
2010,09,28,14,32,19.90
2010,09,28,14,33,19.90
2010,09,28,14,34,19.90
2010,09,28,14,35,19.90
2010,09,28,14,36,19.90
2010,09,28,14,37,19.90
2010,09,28,14,38,19.90
2010,09,28,14,39,19.90
2010,09,28,14,40,20.00
2010,09,28,14,41,20.10
2010,09,28,14,42,20.20
2010,09,28,14,43,20.20
2010,09,28,14,44,20.20
2010,09,28,14,45,20.30
2010,09,28,14,46,20.40
2010,09,28,14,47,20.50
2010,09,28,14,48,20.60
2010,09,28,14,49,20.60
2010,09,28,14,50,20.70
2010,09,28,14,51,20.70
2010,09,28,14,52,20.70
2010,09,28,14,53,20.60
2010,09,28,14,54,20.60
2010,09,28,14,55,20.70
2010,09,28,14,56,20.70
2010,09,28,14,57,20.70
2010,09,28,14,58,20.60
2010,09,28,14,59,20.60
2010,09,28,15,00,20.70
2010,09,28,15,01,20.70
2010,09,28,15,02,20.80
2010,09,28,15,03,20.80
2010,09,28,15,04,20.80
2010,09,28,15,05,20.90
2010,09,28,15,06,21.00
2010,09,28,15,07,21.10
2010,09,28,15,08,21.20
2010,09,28,15,09,21.00
2010,09,28,15,10,21.00
2010,09,28,15,11,20.80
2010,09,28,15,12,20.70
2010,09,28,15,13,20.70
2010,09,28,15,14,20.60
2010,09,28,15,15,20.50
2010,09,28,15,16,20.50
2010,09,28,15,17,20.50
2010,09,28,15,18,20.50
2010,09,28,15,19,20.40
2010,09,28,15,20,20.40
2010,09,28,15,21,20.40
2010,09,28,15,22,20.30
2010,09,28,15,23,20.30
2010,09,28,15,24,20.20
2010,09,28,15,25,20.20
2010,09,28,15,26,20.20
2010,09,28,15,27,20.20
2010,09,28,15,28,20.20
2010,09,28,15,29,20.20
2010,09,28,15,30,20.20
2010,09,28,15,31,20.20
2010,09,28,15,32,20.20
2010,09,28,15,33,20.20
2010,09,28,15,34,20.20
2010,09,28,15,35,20.20
2010,09,28,15,36,20.20
2010,09,28,15,37,20.30
2010,09,28,15,38,20.30
2010,09,28,15,39,20.30
2010,09,28,15,40,20.30
2010,09,28,15,41,20.30
2010,09,28,15,42,20.30
2010,09,28,15,43,20.30
2010,09,28,15,44,20.30
2010,09,28,15,45,20.40
2010,09,28,15,46,20.40
2010,09,28,15,47,20.40
2010,09,28,15,48,20.50
2010,09,28,15,49,20.50
2010,09,28,15,50,20.50
2010,09,28,15,51,20.50
2010,09,28,15,52,20.60
2010,09,28,15,53,20.60
2010,09,28,15,54,20.60
2010,09,28,15,55,20.60
2010,09,28,15,56,20.60
2010,09,28,15,57,20.60
2010,09,28,15,58,20.60
2010,09,28,15,59,20.60
2010,09,28,16,00,20.60
2010,09,28,16,01,20.60
2010,09,28,16,02,20.60
2010,09,28,16,03,20.50
2010,09,28,16,04,20.50
2010,09,28,16,05,20.50
2010,09,28,16,06,20.50
2010,09,28,16,07,20.50
2010,09,28,16,08,20.50
2010,09,28,16,09,20.50
2010,09,28,16,10,20.50
2010,09,28,16,11,20.50
2010,09,28,16,12,20.50
2010,09,28,16,13,20.50
2010,09,28,16,14,20.60
2010,09,28,16,15,20.70
2010,09,28,16,16,20.80
2010,09,28,16,17,20.80
2010,09,28,16,18,20.80
2010,09,28,16,19,20.80
2010,09,28,16,20,20.80
2010,09,28,16,21,20.80
2010,09,28,16,22,20.80
2010,09,28,16,23,20.80
2010,09,28,16,24,20.80
2010,09,28,16,25,20.80
2010,09,28,16,26,20.90
2010,09,28,16,27,20.90
2010,09,28,16,28,21.00
2010,09,28,16,29,21.10
2010,09,28,16,30,21.20
2010,09,28,16,31,21.20
2010,09,28,16,32,21.30
2010,09,28,16,33,21.30
2010,09,28,16,34,21.30
2010,09,28,16,35,21.30
2010,09,28,16,36,21.30
2010,09,28,16,37,21.30
2010,09,28,16,38,21.30
2010,09,28,16,39,21.30
2010,09,28,16,40,21.30
2010,09,28,16,41,21.30
2010,09,28,16,42,21.30
2010,09,28,16,43,21.30
2010,09,28,16,44,21.30
2010,09,28,17,19,20.60
2010,09,28,17,20,20.50
2010,09,28,17,21,20.50
2010,09,28,17,22,20.40
2010,09,28,17,23,20.40
2010,09,28,17,24,20.40
2010,09,28,17,25,20.50
2010,09,28,17,26,20.50
2010,09,28,17,27,20.50
2010,09,28,17,28,20.50
2010,09,28,17,29,20.60
2010,09,28,17,30,20.60
2010,09,28,17,31,20.70
2010,09,28,17,32,20.70
2010,09,28,17,33,20.80
2010,09,28,17,34,20.70
2010,09,28,17,35,20.70
2010,09,28,17,36,20.60
2010,09,28,17,37,20.50
2010,09,28,17,38,20.50
2010,09,28,17,39,20.50
2010,09,28,17,40,20.40
2010,09,28,17,41,20.30
2010,09,28,17,42,20.30
2010,09,28,17,43,20.20
2010,09,28,17,44,20.20
2010,09,28,17,45,20.20
2010,09,28,17,46,20.20
2010,09,28,17,47,20.20
2010,09,28,17,48,20.20
2010,09,28,17,49,20.10
2010,09,28,17,50,20.10
2010,09,28,17,51,20.10
2010,09,28,17,52,20.10
2010,09,28,17,53,20.10